Time,TemperatureF,DewpointF,PressureIn,WindDirection,WindDirectionDegrees,WindSpeedMPH,WindSpeedGustMPH,Humidity,HourlyPrecipIn,Conditions,Clouds,dailyrainin,SolarRadiationWatts/m^2,SoftwareType,DateUTC
2013-02-23 00:03:00,34.9,26.0,30.41,SSW,200,2.0,3.0,70,0.00,,,0.00,0,weatherlink.com 1.10,2013-02-23 05:03:00,
2013-02-23 00:18:00,35.1,27.0,30.41,SSW,205,2.0,2.0,71,0.00,,,0.00,0,weatherlink.com 1.10,2013-02-23 05:18:00,
2013-02-23 00:33:00,35.3,26.0,30.40,SSW,205,0.0,1.0,70,0.00,,,0.00,0,weatherlink.com 1.10,2013-02-23 05:33:00,
2013-02-23 00:48:00,34.9,26.0,30.39,SSW,205,0.0,2.0,70,0.00,,,0.00,0,weatherlink.com 1.10,2013-02-23 05:48:00,
2013-02-23 01:33:00,34.3,26.0,30.38,SW,235,0.0,2.0,72,0.00,,,0.00,0,weatherlink.com 1.10,2013-02-23 06:33:00,
2013-02-23 01:48:00,34.2,26.0,30.38,SW,236,1.0,2.0,73,0.00,,,0.00,0,weatherlink.com 1.10,2013-02-23 06:48:00,
2013-02-23 02:03:00,34.5,27.0,30.38,SW,236,1.0,1.0,73,0.00,,,0.00,0,weatherlink.com 1.10,2013-02-23 07:03:00,
2013-02-23 02:18:00,34.2,27.0,30.38,WNW,293,1.0,3.0,74,0.00,,,0.00,0,weatherlink.com 1.10,2013-02-23 07:18:00,
2013-02-23 02:33:00,34.4,27.0,30.37,WNW,293,0.0,1.0,75,0.00,,,0.00,0,weatherlink.com 1.10,2013-02-23 07:33:00,
2013-02-23 02:48:00,34.9,27.0,30.37,WNW,293,0.0,1.0,74,0.00,,,0.00,0,weatherlink.com 1.10,2013-02-23 07:48:00,
2013-02-23 03:03:00,35.4,28.0,30.36,WNW,293,1.0,1.0,73,0.00,,,0.00,0,weatherlink.com 1.10,2013-02-23 08:03:00,
2013-02-23 03:18:00,35.2,27.0,30.36,WNW,293,1.0,2.0,73,0.00,,,0.00,0,weatherlink.com 1.10,2013-02-23 08:18:00,
2013-02-23 03:33:00,34.3,27.0,30.36,WNW,293,1.0,3.0,75,0.00,,,0.00,0,weatherlink.com 1.10,2013-02-23 08:33:00,
2013-02-23 03:48:00,33.9,27.0,30.35,WNW,293,1.0,3.0,76,0.00,,,0.00,0,weatherlink.com 1.10,2013-02-23 08:48:00,
2013-02-23 04:03:00,33.9,27.0,30.35,WNW,293,1.0,2.0,76,0.00,,,0.00,0,weatherlink.com 1.10,2013-02-23 09:03:00,
2013-02-23 04:18:00,34.1,27.0,30.35,WNW,293,0.0,2.0,76,0.00,,,0.00,0,weatherlink.com 1.10,2013-02-23 09:18:00,
2013-02-23 04:33:00,34.6,28.0,30.35,WNW,293,0.0,1.0,76,0.00,,,0.00,0,weatherlink.com 1.10,2013-02-23 09:33:00,
2013-02-23 04:48:00,35.2,28.0,30.34,WNW,293,0.0,0.0,74,0.00,,,0.00,0,weatherlink.com 1.10,2013-02-23 09:48:00,
2013-02-23 05:03:00,35.8,28.0,30.33,SSE,157,5.0,7.0,73,0.00,,,0.00,0,weatherlink.com 1.10,2013-02-23 10:03:00,
2013-02-23 05:18:00,35.9,28.0,30.34,SSE,157,1.0,8.0,73,0.00,,,0.00,0,weatherlink.com 1.10,2013-02-23 10:18:00,
2013-02-23 05:33:00,36.0,28.0,30.33,SSE,161,2.0,5.0,74,0.00,,,0.00,0,weatherlink.com 1.10,2013-02-23 10:33:00,
2013-02-23 05:48:00,36.0,28.0,30.33,SSW,194,3.0,8.0,74,0.00,,,0.00,0,weatherlink.com 1.10,2013-02-23 10:48:00,
2013-02-23 06:03:00,35.9,29.0,30.33,SSE,163,3.0,7.0,75,0.00,,,0.00,0,weatherlink.com 1.10,2013-02-23 11:03:00,
2013-02-23 06:18:00,35.9,29.0,30.33,SE,129,4.0,9.0,75,0.00,,,0.00,0,weatherlink.com 1.10,2013-02-23 11:18:00,
2013-02-23 06:33:00,35.8,29.0,30.32,SE,144,7.0,9.0,76,0.00,,,0.00,0,weatherlink.com 1.10,2013-02-23 11:33:00,
2013-02-23 06:48:00,35.9,29.0,30.32,SE,127,3.0,7.0,75,0.00,,,0.00,12,weatherlink.com 1.10,2013-02-23 11:48:00,
2013-02-23 07:03:00,36.1,29.0,30.32,SSE,153,0.0,4.0,75,0.00,,,0.00,19,weatherlink.com 1.10,2013-02-23 12:03:00,
2013-02-23 07:18:00,36.2,29.0,30.32,SSE,157,3.0,7.0,75,0.00,,,0.00,26,weatherlink.com 1.10,2013-02-23 12:18:00,
2013-02-23 07:33:00,36.3,29.0,30.32,SE,132,3.0,9.0,75,0.00,,,0.00,35,weatherlink.com 1.10,2013-02-23 12:33:00,
2013-02-23 07:48:00,36.4,29.0,30.32,SE,134,1.0,6.0,75,0.00,,,0.00,46,weatherlink.com 1.10,2013-02-23 12:48:00,
2013-02-23 08:03:00,36.5,29.0,30.32,SE,142,4.0,9.0,75,0.00,,,0.00,49,weatherlink.com 1.10,2013-02-23 13:03:00,
2013-02-23 08:18:00,36.6,29.0,30.32,SSE,157,4.0,7.0,75,0.00,,,0.00,65,weatherlink.com 1.10,2013-02-23 13:18:00,
2013-02-23 08:33:00,36.7,29.0,30.32,SSE,158,4.0,7.0,75,0.00,,,0.00,60,weatherlink.com 1.10,2013-02-23 13:33:00,
2013-02-23 08:48:00,36.8,30.0,30.31,SE,141,5.0,8.0,75,0.00,,,0.00,65,weatherlink.com 1.10,2013-02-23 13:48:00,
2013-02-23 09:04:00,36.8,30.0,30.31,SSE,160,6.0,8.0,75,0.00,,,0.00,104,weatherlink.com 1.10,2013-02-23 14:04:00,
2013-02-23 09:19:00,37.0,30.0,30.30,SE,135,1.0,8.0,75,0.00,,,0.00,102,weatherlink.com 1.10,2013-02-23 14:19:00,
2013-02-23 09:34:00,37.3,30.0,30.30,ESE,119,5.0,9.0,75,0.00,,,0.00,128,weatherlink.com 1.10,2013-02-23 14:34:00,
2013-02-23 09:49:00,37.5,30.0,30.30,SSE,156,6.0,10.0,75,0.00,,,0.00,116,weatherlink.com 1.10,2013-02-23 14:49:00,
2013-02-23 10:04:00,37.5,30.0,30.28,South,170,2.0,10.0,73,0.00,,,0.00,134,weatherlink.com 1.10,2013-02-23 15:04:00,
2013-02-23 10:19:00,37.6,30.0,30.29,SSE,160,6.0,11.0,73,0.00,,,0.00,134,weatherlink.com 1.10,2013-02-23 15:19:00,
2013-02-23 10:34:00,37.8,30.0,30.28,SE,139,4.0,8.0,73,0.00,,,0.00,172,weatherlink.com 1.10,2013-02-23 15:34:00,
2013-02-23 10:49:00,38.1,30.0,30.28,SE,140,5.0,10.0,73,0.00,,,0.00,153,weatherlink.com 1.10,2013-02-23 15:49:00,
2013-02-23 11:04:00,38.1,30.0,30.27,ESE,117,5.0,10.0,72,0.00,,,0.00,185,weatherlink.com 1.10,2013-02-23 16:04:00,
2013-02-23 11:19:00,38.3,30.0,30.26,South,170,4.0,10.0,71,0.00,,,0.00,169,weatherlink.com 1.10,2013-02-23 16:19:00,
2013-02-23 11:34:00,38.3,30.0,30.25,SE,126,4.0,11.0,71,0.00,,,0.00,185,weatherlink.com 1.10,2013-02-23 16:34:00,
2013-02-23 11:49:00,38.5,29.0,30.24,SSE,165,5.0,9.0,70,0.00,,,0.00,183,weatherlink.com 1.10,2013-02-23 16:49:00,
2013-02-23 12:04:00,38.6,30.0,30.23,ESE,120,2.0,8.0,71,0.00,,,0.00,165,weatherlink.com 1.10,2013-02-23 17:04:00,
2013-02-23 12:19:00,38.8,30.0,30.23,SE,133,3.0,12.0,71,0.00,,,0.00,176,weatherlink.com 1.10,2013-02-23 17:19:00,
2013-02-23 12:34:00,39.0,30.0,30.22,SSE,150,7.0,9.0,71,0.00,,,0.00,190,weatherlink.com 1.10,2013-02-23 17:34:00,
2013-02-23 12:49:00,38.9,30.0,30.21,ESE,115,4.0,11.0,71,0.00,,,0.00,225,weatherlink.com 1.10,2013-02-23 17:49:00,
2013-02-23 13:04:00,39.3,31.0,30.20,SE,139,6.0,10.0,71,0.00,,,0.00,171,weatherlink.com 1.10,2013-02-23 18:04:00,
2013-02-23 13:19:00,39.3,31.0,30.21,ESE,109,8.0,10.0,72,0.00,,,0.00,130,weatherlink.com 1.10,2013-02-23 18:19:00,
2013-02-23 13:34:00,39.2,31.0,30.20,SE,132,6.0,11.0,72,0.00,,,0.00,118,weatherlink.com 1.10,2013-02-23 18:34:00,
2013-02-23 13:49:00,39.3,32.0,30.20,SE,126,3.0,10.0,74,0.00,,,0.00,120,weatherlink.com 1.10,2013-02-23 18:49:00,
2013-02-23 14:04:00,39.3,32.0,30.20,ESE,118,4.0,11.0,74,0.00,,,0.00,125,weatherlink.com 1.10,2013-02-23 19:04:00,
2013-02-23 14:19:00,39.4,32.0,30.20,ESE,112,8.0,9.0,74,0.00,,,0.00,77,weatherlink.com 1.10,2013-02-23 19:19:00,
2013-02-23 14:34:00,39.5,32.0,30.19,SSE,156,3.0,11.0,73,0.00,,,0.00,91,weatherlink.com 1.10,2013-02-23 19:34:00,
2013-02-23 14:49:00,39.6,31.0,30.19,ESE,121,2.0,9.0,71,0.00,,,0.00,86,weatherlink.com 1.10,2013-02-23 19:49:00,
2013-02-23 15:04:00,39.5,31.0,30.18,East,96,6.0,11.0,71,0.00,,,0.00,118,weatherlink.com 1.10,2013-02-23 20:04:00,
2013-02-23 15:19:00,39.4,31.0,30.18,East,85,5.0,11.0,71,0.00,,,0.00,114,weatherlink.com 1.10,2013-02-23 20:19:00,
2013-02-23 15:34:00,39.2,31.0,30.17,SSE,147,4.0,13.0,73,0.00,,,0.00,69,weatherlink.com 1.10,2013-02-23 20:34:00,
2013-02-23 15:49:00,39.2,32.0,30.16,SE,130,6.0,9.0,74,0.00,,,0.00,56,weatherlink.com 1.10,2013-02-23 20:49:00,
2013-02-23 16:04:00,39.0,32.0,30.16,ESE,111,3.0,11.0,76,0.00,,,0.00,44,weatherlink.com 1.10,2013-02-23 21:04:00,
2013-02-23 16:19:00,38.9,32.0,30.15,SE,139,4.0,11.0,76,0.00,,,0.00,37,weatherlink.com 1.10,2013-02-23 21:19:00,
2013-02-23 16:34:00,38.7,32.0,30.15,SSE,153,8.0,15.0,76,0.00,,,0.00,33,weatherlink.com 1.10,2013-02-23 21:34:00,
2013-02-23 16:49:00,38.6,32.0,30.15,ESE,121,4.0,12.0,77,0.00,,,0.00,18,weatherlink.com 1.10,2013-02-23 21:49:00,
2013-02-23 17:04:00,38.4,32.0,30.14,ESE,109,8.0,16.0,77,0.00,,,0.00,9,weatherlink.com 1.10,2013-02-23 22:04:00,
2013-02-23 17:19:00,38.1,32.0,30.14,SSE,156,4.0,11.0,77,0.00,,,0.00,0,weatherlink.com 1.10,2013-02-23 22:19:00,
2013-02-23 17:35:00,38.1,32.0,30.14,SE,138,6.0,9.0,77,0.00,,,0.00,0,weatherlink.com 1.10,2013-02-23 22:35:00,
2013-02-23 17:50:00,37.7,31.0,30.13,SE,126,6.0,13.0,78,0.00,,,0.00,0,weatherlink.com 1.10,2013-02-23 22:50:00,
2013-02-23 18:05:00,36.6,32.0,30.12,SE,128,12.0,14.0,83,0.00,,,0.00,0,weatherlink.com 1.10,2013-02-23 23:05:00,
2013-02-23 18:20:00,35.8,32.0,30.13,SE,139,3.0,9.0,87,0.01,,,0.01,0,weatherlink.com 1.10,2013-02-23 23:20:00,
2013-02-23 18:35:00,35.4,33.0,30.13,East,96,2.0,9.0,89,0.01,,,0.01,0,weatherlink.com 1.10,2013-02-23 23:35:00,
2013-02-23 18:50:00,35.2,33.0,30.12,SE,140,2.0,7.0,90,0.01,,,0.01,0,weatherlink.com 1.10,2013-02-23 23:50:00,
2013-02-23 19:05:00,35.3,33.0,30.11,SE,137,4.0,9.0,91,0.01,,,0.01,0,weatherlink.com 1.10,2013-02-24 00:05:00,
2013-02-23 19:20:00,35.3,33.0,30.11,East,92,3.0,9.0,91,0.01,,,0.02,0,weatherlink.com 1.10,2013-02-24 00:20:00,
2013-02-23 19:35:00,35.3,33.0,30.11,ESE,113,5.0,11.0,91,0.01,,,0.02,0,weatherlink.com 1.10,2013-02-24 00:35:00,
2013-02-23 19:50:00,35.3,33.0,30.10,ESE,112,3.0,8.0,92,0.02,,,0.03,0,weatherlink.com 1.10,2013-02-24 00:50:00,
2013-02-23 20:05:00,35.1,33.0,30.10,ESE,115,1.0,6.0,92,0.02,,,0.03,0,weatherlink.com 1.10,2013-02-24 01:05:00,
2013-02-23 20:20:00,34.9,33.0,30.09,ENE,73,1.0,7.0,92,0.02,,,0.04,0,weatherlink.com 1.10,2013-02-24 01:20:00,
2013-02-23 20:35:00,34.8,33.0,30.08,ENE,74,3.0,5.0,92,0.03,,,0.05,0,weatherlink.com 1.10,2013-02-24 01:35:00,
2013-02-23 20:50:00,34.7,33.0,30.08,East,85,0.0,4.0,93,0.02,,,0.05,0,weatherlink.com 1.10,2013-02-24 01:50:00,
2013-02-23 21:05:00,34.9,33.0,30.08,ENE,76,3.0,5.0,93,0.02,,,0.05,0,weatherlink.com 1.10,2013-02-24 02:05:00,
2013-02-23 21:20:00,35.2,33.0,30.07,East,96,3.0,5.0,93,0.02,,,0.06,0,weatherlink.com 1.10,2013-02-24 02:20:00,
2013-02-23 21:35:00,35.2,33.0,30.06,ESE,102,1.0,3.0,93,0.02,,,0.07,0,weatherlink.com 1.10,2013-02-24 02:35:00,
2013-02-23 21:50:00,35.2,33.0,30.04,ENE,74,3.0,6.0,93,0.03,,,0.08,0,weatherlink.com 1.10,2013-02-24 02:50:00,
2013-02-23 22:05:00,35.4,34.0,30.04,ESE,106,1.0,7.0,94,0.04,,,0.09,0,weatherlink.com 1.10,2013-02-24 03:05:00,
2013-02-23 22:20:00,35.5,34.0,30.02,NNE,12,3.0,5.0,93,0.04,,,0.10,0,weatherlink.com 1.10,2013-02-24 03:20:00,
2013-02-23 22:35:00,35.5,34.0,30.02,NE,49,1.0,6.0,93,0.06,,,0.13,0,weatherlink.com 1.10,2013-02-24 03:35:00,
2013-02-23 22:50:00,35.6,34.0,30.01,NE,51,1.0,4.0,93,0.06,,,0.14,0,weatherlink.com 1.10,2013-02-24 03:50:00,
2013-02-23 23:05:00,35.4,34.0,30.01,East,87,2.0,5.0,93,0.08,,,0.17,0,weatherlink.com 1.10,2013-02-24 04:05:00,
2013-02-23 23:20:00,35.3,34.0,30.01,NE,49,3.0,5.0,93,0.08,,,0.19,0,weatherlink.com 1.10,2013-02-24 04:20:00,
2013-02-23 23:35:00,35.3,34.0,30.00,NE,44,3.0,4.0,94,0.07,,,0.20,0,weatherlink.com 1.10,2013-02-24 04:35:00,
2013-02-23 23:50:00,35.4,34.0,29.99,NNE,28,3.0,5.0,94,0.06,,,0.20,0,weatherlink.com 1.10,2013-02-24 04:50:00,